Location: Montjean
(48.0167°N, 0.9667°W)
Time: 00:33:51
(UTC+02:00)

ISS - Visible Passes

Search period start: 24 August 2019 00:00
Search period end: 03 September 2019 00:00
Orbit: 410 x 421 km, 51.6° (Epoch: 24 August)

Date Brightness Start Highest point End Pass type
(mag) Time Alt. Az. Time Alt. Az. Time Alt. Az.
27 Aug -1.1 06:24:38 10° SSE 06:26:24 14° SE 06:28:09 10° ESE visible
29 Aug -2.3 06:22:09 10° SSW 06:25:07 30° SE 06:28:05 10° E visible
30 Aug -1.7 05:35:12 16° SSE 05:36:25 19° SE 05:38:54 10° E visible
31 Aug -1.0 04:48:24 12° ESE 04:48:24 12° ESE 04:49:14 10° ESE visible
31 Aug -3.6 06:21:17 15° SW 06:23:57 64° SSE 06:27:17 10° ENE visible
01 Sep -3.0 05:34:25 35° S 05:35:09 42° SSE 05:38:20 10° ENE visible
02 Sep -1.7 04:47:30 22° ESE 04:47:30 22° ESE 04:49:17 10° E visible
02 Sep -3.7 06:20:23 16° WSW 06:22:54 70° NNW 06:26:15 10° ENE visible
